Location: Newark
(57.7279°N, 5.6916°W)
Time: 00:28:37
(UTC+00:00)

N. Korean satellite - Pass Details

Date: 08 December 2019
Orbit: 454 x 508 km, 97.2° (Epoch: 20 January)

Event Time Altitude Azimuth Distance (km) Brightness Sun altitude
Rises 07:21:48 0° 9° (N) 2,587 10.1 -10.6°
Reaches altitude 10° 07:24:01 10° 0° (N) 1,690 9.1 -10.3°
Maximum altitude 07:27:19 33° 295° (WNW) 832 7.2 -9.9°
Drops below altitude 10° 07:30:32 10° 231° (SW) 1,649 9.0 -9.5°
Sets 07:32:40 0° 221° (SW) 2,513 10.1 -9.3°
